N7TUG Weather Reports


time (UTC)temp
C
wind
direction
speed
KPH
gust
KPH
rain 1hr
cm
rain 24hr
cm
rain mn
cm
humidity
%
barometer
mb
20260507052515 12 160 12.9 17.7 0.00 0.00 0.00 87 1020.6
20260507051516 13 155 11.3 16.1 0.00 0.00 0.00 84 1020.6
20260507050514 13 136 8.0 14.5 0.00 0.00 0.00 84 1020.7
20260507045515 13 134 6.4 12.9 0.00 0.00 0.00 83 1020.7
20260507044515 13 151 8.0 14.5 0.00 0.00 0.00 83 1020.7
20260507043515 13 153 8.0 12.9 0.00 0.00 0.00 83 1020.6
20260507042514 13 144 8.0 14.5 0.00 0.00 0.00 83 1020.6
20260507041515 13 143 8.0 14.5 0.00 0.00 0.00 82 1020.5
20260507040516 13 153 8.0 14.5 0.00 0.00 0.00 82 1020.5
20260507035516 13 161 9.7 14.5 0.00 0.00 0.00 81 1020.5
20260507034515 13 163 8.0 14.5 0.00 0.00 0.00 81 1020.4
20260507033515 14 155 9.7 12.9 0.00 0.00 0.00 80 1020.3
20260507032515 14 161 6.4 11.3 0.00 0.00 0.00 78 1020.2
20260507031535 15 150 6.4 9.7 0.00 0.00 0.00 78 1020.2
20260507030514 15 151 4.8 9.7 0.00 0.00 0.00 77 1020.2
20260507025516 15 166 6.4 9.7 0.00 0.00 0.00 77 1020.2
20260507024515 15 156 6.4 9.7 0.00 0.00 0.00 78 1020.1
20260507023536 15 151 4.8 9.7 0.00 0.00 0.00 78 1019.9
20260507022555 15 158 6.4 12.9 0.00 0.00 0.00 78 1019.9
20260507021515 15 139 8.0 16.1 0.00 0.00 0.00 78 1019.9
20260507020516 15 148 8.0 16.1 0.00 0.00 0.00 78 1019.9
20260507015515 15 151 8.0 12.9 0.00 0.00 0.00 78 1019.8
20260507014515 15 153 8.0 12.9 0.00 0.00 0.00 78 1019.9
20260507013515 15 155 6.4 14.5 0.00 0.00 0.00 78 1019.8
20260507012514 14 141 9.7 14.5 0.00 0.00 0.00 79 1020.0
20260507011515 14 149 9.7 14.5 0.00 0.00 0.00 79 1019.9
20260507010514 15 147 8.0 16.1 0.00 0.00 0.00 79 1019.9
20260507005515 14 158 11.3 16.1 0.00 0.00 0.00 79 1020.1
20260507004515 14 144 11.3 16.1 0.00 0.00 0.00 79 1020.0
20260507003515 14 147 9.7 17.7 0.00 0.00 0.00 79 1020.0
20260507002516 14 144 11.3 17.7 0.00 0.00 0.00 78 1020.0
20260507001515 14 160 11.3 16.1 0.00 0.00 0.00 78 1020.0
20260507000515 15 153 6.4 16.1 0.00 0.00 0.00 78 1020.1
20260506235515 14 151 8.0 12.9 0.00 0.00 0.00 78 1020.0
20260506234515 14 148 9.7 12.9 0.00 0.00 0.00 78 1020.1
20260506233515 14 154 8.0 14.5 0.00 0.00 0.00 78 1020.2
20260506232516 15 164 6.4 14.5 0.00 0.00 0.00 77 1020.2
20260506231515 14 167 9.7 16.1 0.00 0.00 0.00 78 1020.2
20260506230535 14 158 8.0 14.5 0.00 0.00 0.00 78 1020.2
20260506225515 14 160 9.7 16.1 0.00 0.00 0.00 78 1020.2
20260506224515 14 155 11.3 16.1 0.00 0.00 0.00 78 1020.2
20260506223515 14 155 9.7 12.9 0.00 0.00 0.00 77 1020.3
20260506222635 14 157 9.7 16.1 0.00 0.00 0.00 77 1020.3
20260506221534 15 179 8.0 16.1 0.00 0.00 0.00 77 1020.4
20260506220515 14 152 9.7 17.7 0.00 0.00 0.00 77 1020.4
20260506215515 14 161 12.9 17.7 0.00 0.00 0.00 76 1020.5
20260506214515 14 157 9.7 17.7 0.00 0.00 0.00 77 1020.4
20260506213515 14 150 12.9 22.5 0.00 0.00 0.00 76 1020.5
20260506212515 14 147 12.9 20.9 0.00 0.00 0.00 76 1020.5
20260506211515 14 160 11.3 16.1 0.00 0.00 0.00 75 1020.5
20260506210515 14 144 9.7 17.7 0.00 0.00 0.00 75 1020.5
20260506205515 15 151 9.7 17.7 0.00 0.00 0.00 76 1020.4
20260506204515 15 166 9.7 17.7 0.00 0.00 0.00 75 1020.3
20260506203514 14 136 11.3 20.9 0.00 0.00 0.00 76 1020.3
20260506202535 14 143 9.7 20.9 0.00 0.00 0.00 76 1020.3
20260506201515 14 166 9.7 16.1 0.00 0.00 0.00 76 1020.2
20260506200515 14 150 9.7 22.5 0.00 0.00 0.00 78 1020.3
20260506195515 15 156 8.0 14.5 0.00 0.00 0.00 77 1020.2
20260506194536 14 167 9.7 14.5 0.00 0.00 0.00 79 1020.2
20260506193515 13 153 8.0 19.3 0.00 0.00 0.00 80 1020.2
20260506192515 14 136 9.7 19.3 0.00 0.00 0.00 79 1020.2
20260506191515 13 135 9.7 16.1 0.00 0.00 0.00 81 1020.2
20260506190516 13 141 11.3 17.7 0.00 0.00 0.00 82 1020.0
20260506185616 13 150 12.9 20.9 0.00 0.00 0.00 81 1020.0
20260506184516 13 128 11.3 20.9 0.00 0.00 0.00 82 1020.0
20260506183514 13 153 11.3 17.7 0.00 0.00 0.00 83 1020.3
20260506182516 13 140 9.7 16.1 0.00 0.00 0.00 83 1020.1
20260506181515 13 145 9.7 16.1 0.00 0.00 0.00 84 1020.1
20260506180515 13 161 8.0 14.5 0.00 0.00 0.00 84 1020.1
20260506175515 13 155 9.7 17.7 0.00 0.00 0.00 86 1019.9
20260506174515 12 142 11.3 17.7 0.00 0.00 0.00 88 1019.6
20260506173516 13 135 8.0 16.1 0.00 0.00 0.00 88 1019.6
20260506172515 12 142 9.7 16.1 0.00 0.00 0.00 90 1019.8
20260506171515 12 122 11.3 17.7 0.00 0.00 0.00 91 1019.9
20260506170515 12 128 11.3 17.7 0.00 0.00 0.00 90 1019.9
20260506165514 12 144 9.7 17.7 0.00 0.00 0.00 88 1019.9
20260506164514 12 138 9.7 19.3 0.00 0.00 0.00 89 1019.7
20260506163515 12 153 8.0 12.9 0.00 0.00 0.00 88 1019.8
20260506162515 12 159 9.7 16.1 0.00 0.00 0.00 89 1019.7
20260506161516 12 123 11.3 19.3 0.00 0.00 0.00 91 1019.4
20260506160515 12 125 12.9 19.3 0.00 0.00 0.00 92 1019.2
20260506155515 12 129 11.3 17.7 0.00 0.00 0.00 93 1019.2
20260506154515 12 132 11.3 16.1 0.00 0.00 0.00 93 1019.2
20260506153535 12 139 8.0 14.5 0.00 0.00 0.00 93 1019.3
20260506152515 12 153 8.0 12.9 0.00 0.00 0.00 93 1019.6
20260506151515 12 152 6.4 12.9 0.00 0.00 0.00 93 1019.6
20260506150515 12 164 6.4 12.9 0.00 0.00 0.00 94 1019.4
20260506145514 11 138 8.0 16.1 0.00 0.00 0.00 95 1019.1
20260506144516 11 140 9.7 14.5 0.00 0.00 0.00 95 1019.2
20260506143515 12 134 8.0 14.5 0.00 0.00 0.00 93 1019.3
20260506142535 12 142 4.8 9.7 0.00 0.00 0.00 92 1019.4
20260506141515 12 156 6.4 11.3 0.00 0.00 0.00 92 1019.3
20260506140516 11 154 8.0 12.9 0.00 0.00 0.00 92 1019.1
20260506135515 12 151 8.0 12.9 0.00 0.00 0.00 90 1019.1
20260506134535 12 174 3.2 9.7 0.00 0.00 0.00 88 1019.2
20260506133516 12 165 6.4 9.7 0.00 0.00 0.00 88 1018.9
20260506132515 12 176 3.2 12.9 0.00 0.00 0.00 88 1019.0
20260506131515 12 159 4.8 11.3 0.00 0.00 0.00 88 1018.8
20260506130555 12 162 6.4 12.9 0.00 0.00 0.00 87 1018.8
20260506125515 12 127 9.7 14.5 0.00 0.00 0.00 89 1018.3
20260506124535 12 160 8.0 14.5 0.00 0.00 0.00 88 1018.6
20260506123515 12 155 8.0 14.5 0.00 0.00 0.00 88 1018.3
20260506122515 12 158 6.4 14.5 0.00 0.00 0.00 87 1018.3
20260506121514 12 150 6.4 12.9 0.00 0.00 0.00 87 1018.3
20260506120515 12 141 6.4 11.3 0.00 0.00 0.00 87 1018.3
20260506115516 12 149 6.4 11.3 0.00 0.00 0.00 86 1018.2
20260506114516 12 142 6.4 11.3 0.00 0.00 0.00 86 1018.1
20260506113515 12 126 6.4 11.3 0.00 0.00 0.00 87 1018.0
20260506112514 12 123 6.4 11.3 0.00 0.00 0.00 87 1017.9
20260506111515 12 129 6.4 11.3 0.00 0.00 0.00 87 1017.9
20260506110516 12 145 6.4 12.9 0.00 0.00 0.00 88 1017.9
20260506105515 12 140 8.0 12.9 0.00 0.00 0.00 87 1017.8
20260506104516 12 162 6.4 9.7 0.00 0.00 0.00 87 1017.8
20260506103515 12 153 4.8 9.7 0.00 0.00 0.00 87 1017.8
20260506102515 12 148 6.4 11.3 0.00 0.00 0.00 86 1017.7
20260506101516 12 151 6.4 11.3 0.00 0.00 0.00 87 1017.6
20260506100535 12 156 8.0 12.9 0.00 0.00 0.00 86 1017.7
20260506095515 12 155 6.4 11.3 0.00 0.00 0.00 86 1017.6
20260506094536 13 136 4.8 11.3 0.00 0.00 0.00 85 1017.3
20260506093515 13 127 3.2 11.3 0.00 0.00 0.00 86 1017.1
20260506092514 12 146 4.8 9.7 0.00 0.00 0.00 86 1017.3
20260506091515 12 147 6.4 11.3 0.00 0.00 0.00 87 1017.2
20260506090555 12 145 8.0 12.9 0.00 0.00 0.00 86 1017.1
20260506085516 13 129 6.4 11.3 0.00 0.00 0.00 86 1017.0
20260506084515 13 124 8.0 11.3 0.00 0.00 0.00 86 1016.9
20260506083515 13 137 6.4 12.9 0.00 0.00 0.00 86 1016.9
20260506082515 13 128 9.7 12.9 0.00 0.00 0.00 85 1016.8
20260506081515 13 134 8.0 12.9 0.00 0.00 0.00 85 1016.7
20260506080515 13 141 8.0 14.5 0.00 0.00 0.00 85 1016.6
20260506072515 13 143 8.0 12.9 0.00 0.00 0.00 83 1016.3
20260506071515 13 150 8.0 12.9 0.00 0.00 0.00 83 1016.3
20260506070515 14 160 8.0 11.3 0.00 0.00 0.00 82 1016.3
20260506062515 15 124 6.4 9.7 0.00 0.00 0.00 81 1016.0
20260506061515 15 107 4.8 6.4 0.00 0.00 0.00 79 1015.9
20260506060535 15 106 1.6 4.8 0.00 0.00 0.00 79 1015.8